Location: Eastchurch
(51.4000°N, 0.8667°E)
Time: 00:16:06
(UTC+00:00)

Cosmos 292 Rocket - Pass Details

Date: 19 January 2026
Orbit: 663 x 681 km, 74.0° (Epoch: 9 February)

Event Time Altitude Azimuth Distance (km) Brightness Sun altitude
Rises 17:24:06 0° 334° (NNW) 3,013 7.2 -9.2°
Reaches altitude 10° 17:26:24 10° 334° (NNW) 2,096 6.3 -9.6°
Maximum altitude 17:31:06 85° 248° (WSW) 674 3.8 -10.3°
Drops below altitude 10° 17:35:48 10° 159° (SSE) 2,083 6.3 -10.9°
Sets 17:38:04 0° 159° (SSE) 2,994 7.1 -11.3°
